Regional Weather Roundup
Issued by NWS

Home | Current Version | Previous Version | Text Only | Print | Product List | Glossary Off
Versions: 1 2 3 4 5 6 7 8 9 10 11 12 13 14 15 16 17 18 19 20 21 22 23 24 25 26 27 28 29 30 31 32 33 34 35 36 37 38 39 40 41 42 43 44 45 46 47 48 49 50

000
ASUS43 KLMK 110910
RWRKY
KENTUCKY REGIONAL WEATHER ROUNDUP
NATIONAL WEATHER SERVICE LOUISVILLE KY
400 AM EST MON DEC 11 2017

NOTE "FAIR" INDICATES FEW OR NO CLOUDS BELOW 12,000 FEET
WITH NO SIGNIFICANT WEATHER AND/OR OBSTRUCTIONS TO VISIBILITY.

KYZ001>023-026-027-061>063-070>075-111000-
WESTERN AND SOUTH CENTRAL KENTUCKY

CITY           SKY/WX    TMP DP  RH WIND       PRES   REMARKS
PADUCAH        CLEAR     27  22  81 CALM      30.13S
HENDERSON      CLEAR     25  23  92 CALM      30.13F
OWENSBORO      CLEAR     27  24  89 CALM      30.14F
HOPKINSVILLE   CLEAR     33  24  69 SW3       30.14S
BOWLING GREEN  CLEAR     28  23  81 CALM      30.15F
GLASGOW        CLEAR     26  23  86 CALM      30.14S
$$

KYZ024-025-028>034-038-045-046-053-111000-
NORTH CENTRAL KENTUCKY

CITY           SKY/WX    TMP DP  RH WIND       PRES   REMARKS
LOUISVILLE/SDF CLEAR     32  24  72 SW3       30.12S
LOUISVILLE/LOU CLEAR     28  23  81 CALM      30.12F
FORT KNOX      CLEAR     26  22  85 SW3       30.10F
$$

KYZ035>037-039>044-047>052-055>060-089>105-111000-
NORTHEAST KENTUCKY

CITY           SKY/WX    TMP DP  RH WIND       PRES   REMARKS
LEXINGTON      CLEAR     28  20  71 S8        30.11S WCI  20
COVINGTON      CLEAR     28  23  81 W6        30.08S WCI  22
FRANKFORT      CLEAR     28  19  69 SW3       30.10S
$$

KYZ054-064>069-076>088-106>120-111000-
SOUTHEAST KENTUCKY

CITY           SKY/WX    TMP DP  RH WIND       PRES   REMARKS
JACKSON        CLEAR     33  21  61 SW5       30.10S WCI  29
LONDON         CLEAR     28  21  75 CALM      30.12F
SOMERSET       CLEAR     30  23  74 CALM      30.15S
MIDDLESBORO    CLEAR     26  23  88 CALM      30.16S
MONTICELLO     SUNNY     27  23  85 NE7       30.15F WCI  19
$$





USA.gov is the U.S. government's official web portal to all federal, state and local government web resources and services.